Zurück zum Katalog

STARLINK-31324

AktivKommunikationVLEO
NORAD 58976·PAYLOAD·🇺🇸 United States

Gestartet Feb 15, 2024 von Vandenberg Space Force Base

Loading…

Nächste Überflüge (nächste 24 Stunden)

TLE

AktuellSource: CelesTrak SupGP

Epoche: Sep 14, 2026, 22:01 UTC

1 58976C 24031M   26257.91784722 -.00048411  00000+0 -14304-2 0  2577
2 58976  53.1572 135.9211 0001266  89.9150 162.5570 15.34413697    19

Verfolge STARLINK-31324 in Echtzeit mit AllMySat

Download on the App Store